TimeCST,TemperatureF,Dew PointF,Humidity,Sea Level PressureIn,VisibilityMPH,Wind Direction,Wind SpeedMPH,Gust SpeedMPH,PrecipitationIn,Events,Conditions,WindDirDegrees,DateUTC
12:06 AM,33.8,33.8,100,30.35,1.8,North,3.5,-,N/A,,Clear,10,2013-01-07 06:06:00
12:16 AM,32.0,32.0,100,30.35,0.2,NNE,4.6,-,N/A,Fog,Fog,20,2013-01-07 06:16:00
12:32 AM,32.0,30.2,93,30.35,2.0,NNE,4.6,-,N/A,,Clear,30,2013-01-07 06:32:00
12:40 AM,33.8,32.0,93,30.35,4.0,NNE,4.6,-,N/A,,Clear,20,2013-01-07 06:40:00
12:53 AM,34.0,33.1,96,30.37,6.0,NNE,4.6,-,N/A,,Clear,20,2013-01-07 06:53:00
1:53 AM,30.0,28.9,96,30.37,5.0,Calm,Calm,-,N/A,,Clear,0,2013-01-07 07:53:00
1:59 AM,30.2,28.4,93,30.34,1.5,Calm,Calm,-,N/A,,Clear,0,2013-01-07 07:59:00
2:09 AM,28.4,28.4,100,30.34,0.8,Calm,Calm,-,N/A,,Clear,0,2013-01-07 08:09:00
2:53 AM,30.9,30.0,96,30.36,1.5,NNE,5.8,-,N/A,,Clear,30,2013-01-07 08:53:00
2:59 AM,32.0,30.2,93,30.33,3.0,NNE,5.8,-,N/A,,Clear,30,2013-01-07 08:59:00
3:53 AM,33.1,32.0,96,30.36,7.0,NNE,5.8,-,N/A,,Clear,20,2013-01-07 09:53:00
4:53 AM,35.1,33.1,92,30.36,9.0,ENE,3.5,-,N/A,,Clear,60,2013-01-07 10:53:00
5:53 AM,30.0,28.9,96,30.37,5.0,Calm,Calm,-,N/A,,Clear,0,2013-01-07 11:53:00
6:53 AM,30.0,28.9,96,30.38,4.0,NNE,4.6,-,N/A,,Clear,30,2013-01-07 12:53:00
7:09 AM,32.0,30.2,93,30.37,2.0,Calm,Calm,-,N/A,,Clear,0,2013-01-07 13:09:00
7:17 AM,30.2,30.2,100,30.37,1.5,North,4.6,-,N/A,,Clear,10,2013-01-07 13:17:00
7:53 AM,34.0,32.0,92,30.41,2.5,North,3.5,-,N/A,,Clear,10,2013-01-07 13:53:00
8:23 AM,37.4,33.8,87,30.38,4.0,NE,5.8,-,N/A,,Clear,50,2013-01-07 14:23:00
8:53 AM,37.9,35.1,89,30.41,7.0,ENE,4.6,-,N/A,,Clear,60,2013-01-07 14:53:00
9:53 AM,43.0,37.0,80,30.42,10.0,East,4.6,-,N/A,,Clear,90,2013-01-07 15:53:00
10:53 AM,46.9,37.0,68,30.40,10.0,East,5.8,-,N/A,,Clear,100,2013-01-07 16:53:00
11:53 AM,51.1,35.1,54,30.36,10.0,ESE,5.8,-,N/A,,Clear,120,2013-01-07 17:53:00
1:53 PM,54.0,34.0,47,30.29,10.0,Calm,Calm,-,N/A,,Clear,0,2013-01-07 19:53:00
2:53 PM,57.0,35.1,44,30.28,10.0,North,3.5,-,N/A,,Clear,10,2013-01-07 20:53:00
3:53 PM,55.9,35.1,45,30.27,10.0,North,4.6,-,N/A,,Clear,10,2013-01-07 21:53:00
5:53 PM,45.0,37.0,74,30.27,10.0,North,5.8,-,N/A,,Clear,350,2013-01-07 23:53:00
6:53 PM,45.0,37.9,76,30.25,10.0,North,4.6,-,N/A,,Clear,360,2013-01-08 00:53:00
7:53 PM,45.0,37.9,76,30.27,10.0,North,3.5,-,N/A,,Clear,10,2013-01-08 01:53:00
8:53 PM,43.0,37.0,80,30.25,10.0,ENE,4.6,-,N/A,,Clear,60,2013-01-08 02:53:00
9:53 PM,39.9,36.0,86,30.25,10.0,Calm,Calm,-,N/A,,Clear,0,2013-01-08 03:53:00
10:53 PM,37.0,36.0,96,30.25,10.0,NNE,3.5,-,N/A,,Clear,20,2013-01-08 04:53:00
11:53 PM,36.0,35.1,97,30.23,10.0,Calm,Calm,-,N/A,,Clear,0,2013-01-08 05:53:00